Probability
0 0 0 0 0 0 0 0 0 0 0 0 0 0 0 0 0 0 0 0 0 0 0 0 0 0 0 0 0 0 0 0 0 0 0 0 0 0 0 0 0 0 0 0
0 0 0 0 0 0 0 0 0 0 0 0 0 0 0 0 0 0 0 0 0 0 0 0 0 0 0 0 0 0 0 0 0 0 0 0 0 0 0 0 0 0 0 0
0 0 0 0 0 0 0 0 0 0 0 0 0 0 0 0 0 0 0 0 0 0 0 0 0 0 0 0 0 0 0 0 0 0 0 0 0 0 0 0 0 0 0 0
0 0 0 0 0 0 0 0 0 0 0 0 0 0 0 0 0 0 0 0 0 0 0 0 0 0 0 0 0 0 0 0 0 0 0 0 0 0 0 0 0 0 0 0
0 0 0 0 0 0 0 0 0 0 0 0 0 0 0 0 0 0 0 0 0 0 0 0 0 0 0 0 0 0 0 0 0 0 0 0 0 0 0 0 0 0 0 0
0 0 0 0 0 0 0 0 0 0 0 0 0 0 0 0 0 0 0 0 0 0 0 0 0 0 0 0 0 0 0 0 0 0 0 0 0 0 0 0 0 0 0 0
0 0 0 0 0 0 0 0 0 0 0 0 0 0 0 0 0 0 0 0 0 0 0 0 0 0 0 0 0 0 0 0 0 0 0 0 0 0 0 0 0 0 0 0
0 0 0 0 0 0 0 0 0 0 0 0 0 0 0 0 0 0 0 0 0 0 0 0 0 0 0 0 0 0 0 0 0 0 0 0 0 0 0 0 0 0 0 0
0 0 0 0 0 0 0 0 0 0 0 0 0 0 0 0 0 0 0 0 0 0 0 0 0 0 0 0 0 0 0 0 0 0 0 0 0 0 0 0 0 0 0 0
0 0 0 0 0 0 0 0 0 0 0 0 0 0 0 0 0 0 0 0 0 0 0 0 0 0 0 0 0 0 0 0 0 0 0 0 0 0 0 0 0 0 0 0
0 0 0 0 0 0 0 0 0 0 0 0 0 0 0 0 0 0 0 0 0 0 0 0 0 0 0 0 0 0 0 0 0 0 0 0 0 0 0 0 0 0 0 0
0 0 0 0 0 0 0 0 0 0 0 0 0 0 0 0 0 0 0 0 0 0 0 0 0 0 0 0 0 0 0 0 0 0 0 0 0 0 0 0 0 0 0 0
0 0 0 0 0 0 0 0 0 0 0 0 0 0 0 0 0 0 0 0 0 0 0 0 0 0 0 0 0 0 0 0 0 0 0 0 0 0 0 0 0 0 0 0
0 0 0 0 0 0 0 0 0 0 0 0 0 0 0 0 0 0 0 0 0 0 0 0 0 0 0 0 0 0 0 0 0 0 0 0 0 0 0 0 0 0 0 0
0 0 0 0 0 0 0 0 0 0 0 0 0 0 0 0 0 0 0 0 0 0 0 0 0 0 0 0 0 0 0 0 0 0 0 0 0 0 0 0 0 0 0 0
0 0 0 0 0 0 0 0 0 0 0 0 0 0 0 0 0 0 0 0 0 0 0 0 0 0 0 0 0 0 0 0 0 0 0 0 0 0 0 0 0 0 0 0
0 0 0 0 0 0 0 0 0 0 0 0 0 0 0 0 0 0 0 0 0 0 0 0 0 0 0 0 0 0 0 0 0 0 0 0 0 0 0 0 0 0 0 0
0 0 0 0 0 0 0 0 0 0 0 0 0 0 0 0 0 0 0 0 0 0 0 0 0 0 0 0 0 0 0 0 0 0 0 0 0 0 0 0 0 0 0 0
0 0 0 0 0 0 0 0 0 0 0 0 0 0 0 0 0 0 0 0 0 0 0 0 0 0 0 0 0 0 0 0 0 0 0 0 0 0 0 0 0 0 0 0
0 0 0 0 0 0 0 0 0 0 0 0 0 0 0 0 0 0 0 0 0 0 0 0 0 0 0 0 0 0 0 0 0 0 0 0 0 0 0 0 0 0 0 0
0 0 0 0 0 0 0 0 0 0 0 0 0 0 0 0 0 0 0 0 0 0 0 0 0 0 0 0 0 0 0 0 0 0 0 0 0 0 0 0 0 0 0 0
0 0 0 0 0 0 0 0 0 0 0 0 0 0 0 0 0 0 0 0 0 0 0 0 0 0 0 0 0 0 0 0 0 0 0 0 0 0 0 0 0 0 0 0
0 0 0 0 0 0 0 0 0 0 0 0 0 0 0 0 0 0 0 0 0 0 0 0 0 0 0 0 0 0 0 0 0 0 0 0 0 0 0 0 0 0 0 0
0 0 0 0 0 0 0 0 0 0 0 0 0 0 0 0 0 0 0 0 0 0 0 0 0 0 0 0 0 0 0 0 0 0 0 0 0 0 0 0 0 0 0 0
0 0 0 0 0 0 0 0 0 0 0 0 0 0 0 0 0 0 0 0 0 0 0 0 0 0 0 0 0 0 0 0 0 0 0 0 0 0 0 0 0 0 0 0
0 0 0 0 0 0 0 0 0 0 0 0 0 0 0 0 0 0 0 0 0 0 0 0 0 0 0 0 0 0 0 0 0 0 0 0 0 0 0 0 0 0 0 0
0 0 0 0 0 0 0 0 0 0 0 0 0 0 0 0 0 0 0 0 0 0 0 0 0 0 0 0 0 0 0 0 0 0 0 0 0 0 0 0 0 0 0 0
Wind_Speed
4 3 2 5 7 8 10 9 10 10 10 14 10 7 7 6 5 5 6 6 5 5 4 4 3 3 3 3 2 2 2 2 2 2 1 1 1 1 1 1 1 1 1 2
3 1 3 7 11 11 11 9 11 10 15 13 8 5 6 7 6 7 7 7 6 6 5 4 4 3 3 3 3 2 2 3 2 1 1 1 1 1 1 1 1 1 1 2
4 4 5 10 12 14 9 10 10 14 14 5 5 6 7 7 7 8 8 7 6 6 6 5 4 4 4 4 2 2 3 2 2 1 1 2 1 1 2 2 1 2 2 2
1 3 7 9 2 8 9 9 12 11 9 7 8 6 6 7 7 9 8 7 6 5 5 4 3 3 3 2 2 3 3 3 2 2 2 2 1 2 2 2 2 2 3 3
2 3 12 11 4 7 7 10 12 16 14 9 4 5 7 8 9 9 8 6 5 5 4 3 3 3 2 2 2 2 3 3 3 2 2 2 3 3 3 2 2 3 3 3
4 3 10 7 2 4 3 9 7 12 13 8 3 3 7 4 4 5 5 4 3 3 2 3 3 2 2 3 2 4 4 4 3 2 3 4 4 3 2 2 3 3 3 3
6 7 14 8 4 5 4 9 3 8 9 8 9 9 5 2 3 3 3 3 3 2 3 3 2 2 3 3 5 4 3 2 2 2 3 3 3 2 2 2 2 3 4 4
7 7 16 7 10 11 12 3 2 5 6 8 9 7 5 5 5 4 3 3 2 2 3 2 1 2 3 4 4 2 2 2 2 2 2 2 2 2 2 2 2 3 3 4
15 14 6 10 11 8 3 4 5 5 6 6 7 7 7 6 6 5 4 3 2 3 3 2 1 2 4 4 2 1 2 2 2 2 2 2 2 3 2 2 2 3 3 4
9 14 10 10 10 9 8 8 8 6 6 6 7 7 7 6 6 5 4 3 2 2 2 3 2 2 4 3 1 2 2 2 2 2 2 2 2 2 3 3 3 4 4 4
11 11 7 11 15 15 12 10 10 9 7 8 8 8 7 6 6 5 4 3 2 3 4 4 3 3 3 1 1 2 2 2 2 2 2 2 3 3 4 4 4 5 4 4
15 12 10 10 8 10 11 12 12 10 9 7 8 9 7 6 5 4 4 3 3 3 4 4 3 3 2 2 2 2 2 2 2 2 2 2 3 4 6 6 7 9 8 6
12 8 9 9 7 7 9 10 9 9 10 8 7 7 7 6 4 3 3 3 4 5 4 4 3 3 3 2 3 3 4 3 2 2 2 2 3 3 4 5 7 8 9 9
10 6 8 10 9 8 8 7 6 5 6 5 5 4 4 4 3 4 5 5 4 3 3 3 4 4 3 2 3 4 4 4 3 3 3 3 3 3 3 3 4 4 6 9
14 13 13 8 6 5 5 4 5 6 5 5 4 5 5 5 6 6 5 3 2 3 4 3 4 5 2 3 4 4 4 3 3 3 3 3 3 3 3 4 4 4 4 5
11 10 10 10 11 9 6 6 8 9 7 6 6 6 6 5 5 4 3 3 3 4 5 4 6 4 2 3 4 3 3 4 3 3 3 3 3 3 3 3 4 4 4 4
9 11 10 11 12 10 9 9 9 8 7 7 7 5 4 3 3 4 4 4 5 5 4 4 5 3 3 4 4 3 3 3 4 3 3 3 3 3 4 4 4 5 5 5
12 12 10 10 9 9 8 7 7 7 7 6 4 4 4 5 6 6 4 2 2 3 4 4 4 2 3 3 3 2 3 3 3 3 3 3 3 3 3 4 5 5 5 5
10 10 8 8 7 7 6 6 6 5 5 4 4 5 5 5 5 4 2 2 3 5 5 3 3 2 3 3 3 3 3 3 3 3 3 3 3 3 4 4 5 5 4 4
7 6 6 6 5 5 5 4 4 3 3 4 4 3 3 4 3 3 3 4 4 4 3 2 3 3 3 4 3 3 4 4 4 3 3 3 4 4 4 4 4 4 4 4
6 5 5 5 4 3 4 4 4 4 3 4 5 5 5 4 3 3 3 4 4 3 2 2 2 3 3 3 4 3 3 4 4 4 4 4 4 4 4 4 4 4 4 4
3 3 4 3 3 2 2 2 3 3 3 3 3 3 3 3 3 3 4 4 3 1 1 2 2 3 3 3 3 3 4 4 4 3 4 4 4 4 4 4 4 4 4 4
1 1 1 1 2 2 1 1 2 3 3 4 4 4 4 4 3 3 4 3 2 2 2 2 3 3 2 2 2 3 4 4 4 4 4 4 4 4 4 5 4 4 5 5
1 1 1 1 2 2 1 1 0 1 1 1 2 2 2 2 2 2 2 2 2 2 2 3 4 3 2 2 2 3 3 4 4 4 4 4 4 4 4 4 4 4 4 5
1 1 1 2 1 0 0 1 1 1 0 1 1 1 0 1 2 2 1 2 2 2 2 3 3 2 2 2 3 3 3 4 4 4 4 4 4 4 4 4 4 4 4 5
1 1 0 0 1 1 1 1 0 0 1 1 1 1 1 1 1 1 1 1 2 2 2 2 2 2 2 2 3 3 3 3 3 3 4 4 4 4 4 4 5 4 4 5
2 2 2 2 2 2 1 0 0 1 1 1 2 1 2 2 1 1 1 1 1 2 2 2 2 2 2 2 2 2 2 3 3 3 3 3 3 3 4 4 4 4 4 4
Wind_Direction
260 271 250 240 230 201 205 208 215 240 245 263 264 265 273 276 276 279 279 274 266 262 259 262 257 246 237 240 234 218 213 227 240 243 228 226 241 274 277 274 273 271 288 299
296 294 273 265 244 222 226 227 238 261 270 261 263 263 266 267 263 263 266 266 264 261 256 253 248 243 237 239 233 206 214 236 245 231 228 240 252 251 270 274 298 300 287 291
280 321 338 273 231 199 204 210 199 224 242 256 258 251 250 252 253 254 258 259 257 254 249 247 241 231 232 237 225 206 219 237 241 223 234 250 254 256 263 270 267 272 276 277
306 14 255 248 172 181 205 230 215 235 249 245 245 265 264 248 245 254 252 250 249 245 245 244 234 225 230 225 211 212 221 236 241 225 233 245 244 253 262 265 261 264 268 266
132 263 280 288 226 176 194 262 219 225 245 253 264 308 283 246 228 235 239 238 236 231 232 237 237 225 211 218 212 220 233 241 244 231 233 239 244 252 256 257 265 267 276 265
144 205 251 257 173 169 133 279 234 204 228 231 170 259 270 256 223 231 239 234 227 223 215 233 243 199 194 220 220 235 241 243 239 228 229 239 245 253 260 254 260 270 275 271
182 227 262 250 153 139 185 249 226 192 211 195 199 223 251 270 251 236 234 233 217 211 225 237 228 177 206 226 237 242 241 240 240 235 236 242 252 261 260 259 272 273 277 280
167 206 252 193 152 193 220 248 204 204 207 208 225 248 265 269 263 258 254 245 216 216 243 247 199 187 224 243 250 240 217 227 238 241 242 242 243 259 256 245 258 269 275 284
193 215 241 177 201 219 221 237 235 224 227 216 231 247 254 260 260 258 250 246 231 222 247 264 219 200 232 258 255 220 216 236 247 253 250 244 234 242 249 240 246 261 264 272
242 254 245 234 244 248 235 235 245 243 243 227 234 246 253 258 258 253 247 241 233 220 238 258 250 233 241 262 229 199 231 249 248 248 259 255 247 239 238 238 243 252 258 266
246 263 280 255 233 237 241 241 246 248 240 233 233 246 247 251 251 244 242 233 213 220 238 253 254 250 256 253 181 210 239 250 254 247 250 257 252 246 246 242 236 245 249 252
227 220 209 239 227 215 222 232 232 234 244 235 220 237 242 246 246 234 231 227 224 230 241 254 253 250 251 224 196 209 239 245 243 249 253 257 269 284 272 269 274 268 265 265
229 223 222 248 248 220 221 231 227 220 228 238 232 228 234 242 242 227 223 221 226 233 238 248 252 254 248 217 204 213 233 241 239 238 244 249 253 261 285 293 279 278 278 276
234 229 249 245 241 235 228 233 224 224 230 229 231 228 227 235 239 233 234 230 227 231 241 243 249 257 248 212 210 222 229 231 229 232 236 240 243 249 254 266 286 288 281 278
228 220 231 242 242 238 226 217 221 233 234 236 225 222 220 221 231 239 240 223 209 232 246 243 251 261 240 206 212 222 223 226 225 230 231 235 239 243 248 251 261 277 293 290
225 224 230 238 243 241 228 218 224 236 233 232 230 226 222 221 231 242 237 193 198 235 242 238 249 255 217 205 215 221 227 231 219 222 225 229 232 237 246 250 259 266 270 276
212 225 223 230 236 236 227 223 224 230 230 229 230 223 210 208 229 245 245 221 217 236 242 239 251 244 209 207 209 217 223 226 218 222 225 227 229 235 242 247 255 262 265 267
217 223 216 216 222 225 228 224 223 224 226 227 216 197 197 204 223 238 241 225 228 251 252 251 249 222 214 214 209 212 214 219 218 224 228 229 234 237 240 245 253 261 274 277
219 223 223 221 217 213 219 221 220 220 218 200 193 205 212 218 226 235 222 193 225 258 269 252 243 212 220 220 202 202 211 219 225 228 227 230 234 235 238 244 253 260 268 275
222 219 217 221 217 208 213 214 202 197 195 181 183 195 215 229 225 219 207 220 230 239 256 233 218 218 222 221 207 203 210 216 223 227 226 228 234 240 242 247 252 258 261 261
223 218 213 214 220 219 214 203 189 195 189 172 184 204 218 229 216 202 207 245 257 246 251 234 223 228 221 211 203 206 209 216 221 223 225 230 236 243 246 248 251 255 259 263
229 216 215 206 195 216 222 185 179 181 177 181 191 195 201 224 228 227 231 240 267 262 245 236 238 234 224 203 201 209 214 219 225 226 227 229 232 239 246 249 254 258 260 261
312 266 212 192 193 200 140 134 167 178 190 196 196 199 208 219 211 215 253 254 254 257 251 245 255 250 222 200 209 215 220 224 228 229 231 234 235 238 244 249 253 256 259 261
16 21 26 70 100 106 93 320 198 191 207 214 215 208 202 217 239 235 250 265 252 254 249 255 260 258 225 216 220 225 230 232 234 234 237 239 240 241 243 247 253 256 257 260
68 75 73 87 106 116 10 19 39 37 39 279 285 287 256 225 235 262 265 254 258 261 260 268 273 268 234 225 226 231 235 235 235 235 234 238 241 243 246 247 249 255 259 261
40 58 55 49 67 64 80 93 75 1 10 337 328 332 329 316 272 268 276 275 270 267 264 267 263 253 240 238 239 241 243 245 244 241 240 243 245 247 250 253 253 256 259 262
44 45 47 42 29 27 41 75 163 259 260 260 299 311 327 330 327 315 299 291 287 285 281 277 269 258 251 248 250 252 250 248 246 247 248 248 250 252 254 255 260 261 262 264